[TLELIST] Archives

 

Current TLEs <07 JANUARY 2005>

January 27th 2005 PST

HST 1 20580U 90037B 05026.57065544 .00000970 00000-0 63893-4 0 2568 2 20580 28.4683 111.4048 0003974 211.7236 148.3110 14.99564227608968 ISS 1 25544U 98067A 05027.68962031 .00018886 00000-0 15549-3 0 6859 2 25544 51.6462 259.2941 0009529 37.7000 81.7769 15.70381285353593 CHANDRA 1 25867U 99040B 05027.87500000 .00000000 00000-0 00000-0 0 7497 2 25867 55.9682 106.3863 5631864 301.8028 21.7197 0.37789106 1219 These 2-Line Elements (TLEs) are from US Space Command courtesy TS Kelso's Celestial BB ...Continue Reading

Current TLEs <24 JANUARY 2005>

January 24th 2005 PST

HST 1 20580U 90037B 05023.57566755 .00001608 00000-0 11465-3 0 2549 2 20580 28.4672 130.9133 0003972 180.4525 179.6059 14.99559949608513 ISS 1 25544U 98067A 05024.68431639 .00022942 00000-0 18861-3 0 6646 2 25544 51.6460 274.6428 0009456 25.3009 13.2875 15.70270581353126 CHANDRA 1 25867U 99040B 05019.79166667 .00000000 00000-0 00000+0 0 7462 2 25867 55.9470 106.4192 5644997 302.1143 1.2268 0.37797860 1211 These 2-Line Elements (TLEs) are from US Space Command courtesy TS Kelso's Celestial BB ...Continue Reading

Current TLEs <07 JANUARY 2005>

January 7th 2005 PST

HST 1 20580U 90037B 05006.93658849 .00000946 00000-0 62072-4 0 2451 2 20580 28.4658 239.3106 0003576 0.0012 0.0577 14.99528906606013 ISS 1 25544U 98067A 05007.58769796 .00024673 00000-0 18499-3 0 5384 2 25544 51.6404 2.0674 0003314 172.4167 292.9511 15.72472141350438 CHANDRA 1 25867U 99040B 05006.54166667 .00000000 00000-0 00000-0 0 7417 2 25867 55.8300 106.5989 5650514 302.5321 357.2811 0.37797775 1214 These 2-Line Elements (TLEs) are from US Space Command courtesy TS Kelso's Celestial BB ...Continue Reading

Current TLEs <05 JANUARY 2005>

January 5th 2005 PST

HST 1 20580U 90037B 05005.07299203 .00001080 00000-0 72766-4 0 2417 2 20580 28.4658 251.4504 0003662 340.3185 19.7266 14.99526607605733 ISS 1 25544U 98067A 05005.99702133 .00026998 00000-0 20255-3 0 5249 2 25544 51.6402 10.2156 0003465 166.4404 288.4499 15.72399972350183 CHANDRA 1 25867U 99040B 05003.87500000 +.00000000 +00000-0 +00000-0 0 07402 2 25867 055.7867 106.6697 5653047 302.5767 354.1908 00.37798297001219 These 2-Line Elements (TLEs) are from US Space Command courtesy TS Kelso's Celestial BB ...Continue Reading

Current TLEs <03 JANUARY 2005>

January 3rd 2005 PST

HST 1 20580U 90037B 05002.07792020 .00001084 00000-0 73079-4 0 2398 2 20580 28.4663 270.9601 0003752 305.8416 54.1814 14.99521029605281 ISS 1 25544U 98067A 05003.65474537 .00027269 00000-0 20564-3 0 5081 2 25544 51.6399 22.2166 0003517 155.8715 351.8496 15.72272013349813 CHANDRA 1 25867U 99040B 05001.25000000 .00000000 00000-0 00000-0 0 7395 2 25867 55.7789 106.7223 5652758 302.6459 356.7782 0.37789822 1217 These 2-Line Elements (TLEs) are from US Space Command courtesy TS Kelso's Celestial BB ...Continue Reading

Current TLEs <31 DECEMBER 2004>

December 31st 2004 PST

HST 1 20580U 90037B 04366.87988916 .00001092 00000-0 73676-4 0 2380 2 20580 28.4662 278.7677 0003884 290.2428 69.7743 14.99518825605109 ISS 1 25544U 98067A 04366.82866898 .00025588 00000-0 19443-3 0 4878 2 25544 51.6397 36.6888 0003694 149.9726 191.6749 15.72131038349365 CHANDRA 1 25867U 99040B 05001.25000000 +.00000000 +00000-0 +00000-0 0 07395 2 25867 055.7789 106.7223 5652758 302.6459 356.7782 00.37789822001217 These 2-Line Elements (TLEs) are from US Space Command courtesy TS Kelso's Celestial BB ...Continue Reading

Current TLEs <27 DECEMBER 2004>

December 27th 2004 PST

HST 1 20580U 90037B 04361.22250346 .00000799 00000-0 50451-4 0 2359 2 20580 28.4685 315.6155 0003866 231.2531 128.7708 14.99507074604252 ISS 1 25544U 98067A 04362.48028935 .00024113 00000-0 18535-3 0 4557 2 25544 51.6399 58.9525 0003850 141.7060 54.7186 15.71893193348681 CHANDRA 1 25867U 99040B 04356.66666667 +.00000000 +00000-0 +00000-0 0 07344 2 25867 055.6902 106.8246 5676980 302.9306 356.0147 00.37803732001211 These 2-Line Elements (TLEs) are from US Space Command courtesy TS Kelso's Celestial BB ...Continue Reading

Current TLEs <22 DECEMBER 2004>

December 22nd 2004 PST

HST 1 20580U 90037B 04357.36214735 .00000877 00000-0 56610-4 0 2339 2 20580 28.4692 340.7535 0003810 190.1448 169.9044 14.99502593603676 ISS 1 25544U 98067A 04357.82824074 .00018571 00000-0 14537-3 0 4220 2 25544 51.6383 82.7600 0004193 127.9090 7.5902 15.71650164347953 CHANDRA 1 25867U 99040B 04356.66666667 +.00000000 +00000-0 +00000-0 0 07344 2 25867 055.6902 106.8246 5676980 302.9306 356.0147 00.37803732001211 These 2-Line Elements (TLEs) are from US Space Command courtesy TS Kelso's Celestial BB ...Continue Reading

Current TLEs <20 DECEMBER 2004>

December 20th 2004 PST

HST 1 20580U 90037B 04355.43196654 .00000901 00000-0 58525-4 0 2328 2 20580 28.4690 353.3217 0003813 169.0329 191.0372 14.99499867603384 ISS 1 25544U 98067A 04355.85069564 .00020916 00000-0 16356-3 0 4087 2 25544 51.6385 92.8798 0004138 123.3875 336.0340 15.71582104347645 CHANDRA 1 25867U 99040B 04354.04166667 +.00000000 +00000-0 +00000-0 0 07338 2 25867 055.6457 106.9067 5677504 302.9112 358.7301 00.37799837001217 These 2-Line Elements (TLEs) are from US Space Command courtesy TS Kelso's Celestial BB ...Continue Reading

Current TLEs <17 DECEMBER 2004>

December 18th 2004 PST

HST 1 20580U 90037B 04353.16898927 .00000962 00000-0 63386-4 0 2304 2 20580 28.4698 8.0579 0003737 147.8915 212.1928 14.99496751603041 ISS 1 25544U 98067A 04353.69820947 .00019991 00000-0 15717-3 0 3919 2 25544 51.6378 103.8920 0004423 117.5178 35.9481 15.71486299347307 CHANDRA 1 25867U 99040B 04351.33333333 +.00000000 +00000-0 +00000-0 0 07322 2 25867 055.6280 106.9611 5673575 302.9600 350.0309 00.37786181001213 These 2-Line Elements (TLEs) are from US Space Command courtesy TS Kelso's Celestial BB ...Continue Reading
  • This mailing list is a public mailing list - anyone may join or leave, at any time.
  • This mailing list is announce-only.

International Space Station (ISS) / Hubble Space Telescope (HST) / Chandra X-Ray Observatory Orbital Data via EMAIL

Privacy Policy:

Private list